EDT,Max TemperatureF,Mean TemperatureF,Min TemperatureF,Max Dew PointF,MeanDew PointF,Min DewpointF,Max Humidity, Mean Humidity, Min Humidity, Max Sea Level PressureIn, Mean Sea Level PressureIn, Min Sea Level PressureIn, Max VisibilityMiles, Mean VisibilityMiles, Min VisibilityMiles, Max Wind SpeedMPH, Mean Wind SpeedMPH, Max Gust SpeedMPH,PrecipitationIn, CloudCover, Events, WindDirDegrees
2013-8-1,69,64,60,66,64,59,100,95,87,30.04,29.92,29.85,10,4,1,9,1,,0.48,7,Rain,0
2013-8-2,80,68,57,66,63,57,100,89,54,29.93,29.87,29.82,10,5,0,10,1,18,0.01,4,Fog,224
2013-8-3,77,68,60,68,64,59,100,90,71,29.92,29.89,29.85,10,7,2,10,2,16,0.34,5,Rain,218
2013-8-4,75,65,55,61,56,48,100,80,48,29.99,29.92,29.89,10,6,0,10,1,,0.01,2,Fog,323
2013-8-5,75,62,50,58,51,47,96,71,40,30.08,30.04,30.00,10,10,10,8,2,,0.01,0,,350
2013-8-6,79,64,50,59,54,48,100,76,46,30.13,30.09,30.06,10,10,2,6,1,,0.00,2,,182
2013-8-7,75,67,59,67,63,57,100,85,71,30.14,30.11,30.06,10,9,2,9,2,,0.03,8,Rain,162
2013-8-8,81,73,66,72,70,66,100,90,76,30.06,30.03,30.00,10,6,1,7,1,,0.32,7,Rain-Thunderstorm,214
2013-8-9,84,76,69,75,72,69,100,95,67,30.01,29.89,29.79,10,4,0,10,2,18,1.82,7,Fog-Rain-Thunderstorm,213
2013-8-10,81,70,60,70,63,56,100,89,43,30.08,29.97,29.90,10,5,0,9,1,16,0.01,1,Fog,313
2013-8-11,77,64,53,66,57,52,100,84,55,30.14,30.10,30.04,10,8,0,6,1,,0.01,3,Fog,215
2013-8-12,80,70,60,66,62,57,100,79,47,30.05,30.00,29.94,10,9,4,5,0,,0.00,3,,135
2013-8-13,78,71,64,70,66,59,100,90,69,29.92,29.79,29.70,10,6,0,12,1,21,0.68,6,Rain-Thunderstorm,255
2013-8-14,70,60,51,57,50,47,93,68,51,30.06,29.91,29.80,10,10,10,12,5,18,0.00,1,,294
2013-8-15,73,60,46,56,51,46,100,76,44,30.16,30.12,30.08,10,10,10,6,1,16,0.00,1,,285
2013-8-16,77,62,48,61,54,48,100,77,42,30.22,30.17,30.14,10,10,9,5,1,,0.01,1,,243
2013-8-17,79,65,51,65,57,50,100,81,45,30.30,30.26,30.23,10,9,6,6,1,,0.01,0,,35
2013-8-18,73,65,57,66,60,57,100,92,71,30.27,30.22,30.15,10,6,1,4,0,,0.01,3,,27
2013-8-19,77,67,59,66,61,59,100,91,62,30.15,30.11,30.05,10,4,0,6,0,,0.01,4,Fog,190
2013-8-20,84,70,57,71,62,57,100,91,53,30.15,30.11,30.08,10,5,0,4,0,,0.00,3,Fog,115
2013-8-21,84,70,55,68,60,55,100,92,46,30.21,30.16,30.07,10,4,0,6,0,,0.01,4,Fog,210
2013-8-22,80,71,62,71,66,63,100,93,74,30.08,30.02,29.88,10,4,1,7,1,,0.11,3,Rain-Thunderstorm,204
2013-8-23,79,70,59,66,60,54,97,75,42,30.14,30.01,29.91,10,9,6,8,2,,0.00,1,,348
2013-8-24,75,64,53,57,53,50,100,75,40,30.37,30.29,30.17,10,10,4,12,2,17,0.00,0,,61
2013-8-25,79,62,46,60,53,46,100,78,45,30.42,30.35,30.24,10,10,4,8,1,,0.01,0,,203
2013-8-26,78,70,61,69,63,57,100,82,71,30.24,30.08,29.92,10,9,4,10,2,,0.17,4,Rain,214
2013-8-27,84,75,66,69,67,65,100,83,56,29.93,29.89,29.84,10,9,2,8,3,,0.00,4,,327
2013-8-28,82,72,62,72,67,62,100,96,69,29.93,29.90,29.86,10,5,0,7,1,16,0.28,5,Fog-Rain-Thunderstorm,45
2013-8-29,79,72,66,70,67,66,100,93,66,30.04,29.99,29.91,10,6,0,8,2,,0.01,6,Fog,34
2013-8-30,82,74,66,71,68,64,100,87,65,30.03,29.96,29.86,10,8,4,7,2,,0.00,5,,213
2013-8-31,82,76,70,74,71,69,100,90,74,29.86,29.83,29.79,9,6,3,8,2,,0.00,4,,216